Regional Weather Roundup
Issued by NWS

Home | Current Version | Previous Version | Text Only | Print | Product List | Glossary On
Versions: 1 2 3 4 5 6 7 8 9 10 11 12 13 14 15 16 17 18 19 20 21 22 23 24 25 26 27 28 29 30 31 32 33 34 35 36 37 38 39 40 41 42 43 44 45 46 47 48 49 50
000
ASUS43 KMKX 192320
RWRWI

WISCONSIN REGIONAL WEATHER ROUNDUP
NATIONAL WEATHER SERVICE MILWAUKEE/SULLIVAN WI
500 PM CST THU JAN 19 2017

NOTE: "FAIR" INDICATES FEW OR NO CLOUDS BELOW 12,000 FEET WITH NO
SIGNIFICANT WEATHER AND/OR OBSTRUCTIONS TO VISIBILITY.

WIZ001-002-006>008-014>016-023>028-200000-
NORTHWEST WISCONSIN

CITY           SKY/WX    TMP DP  RH WIND       PRES   REMARKS
SUPERIOR ARPT  CLEAR     35  32  89 CALM      29.75R
ASHLAND        CLEAR     41  33  73 SW7       29.76R
HAYWARD        CLEAR     38  32  79 SE3       29.76R
SIREN          CLEAR     40  33  75 S9        29.76R WCI  34
CUMBERLAND     MOCLDY    34  32  93 SE8       29.77S WCI  27
RICE LAKE      MOCLDY    36  33  87 SE7       29.79S WCI  31
CHETEK         MOCLDY    37  33  82 CALM      29.79
LADYSMITH      CLEAR     38  32  80 S6        29.80F WCI  33
EAU CLAIRE     CLOUDY    38  32  79 S3        29.80R
MENOMONIE        N/A    N/A N/A N/A MISG        N/A
NEW RICHMOND   CLOUDY    37  31  81 SE6       29.77S WCI  32
OSCEOLA        CLOUDY    37  32  82 SE7       29.79S WCI  32
$$

WIZ003>005-009-010-017-018-200000-
NORTH CENTRAL WISCONSIN

CITY           SKY/WX    TMP DP  RH WIND       PRES   REMARKS
MANITOWISH WTR CLEAR     39  34  81 SE6       29.78R WCI  35
ARBOR VITAE    CLEAR     39  33  78 SE3       29.79S
WOODRUFF       CLEAR     39  33  78 SE3       29.79S
RHINELANDER    CLEAR     38  32  79 S5        29.81R WCI  34
EAGLE RIVER    CLEAR     42  30  62 SW3       29.80R
LAND O LAKES   CLEAR     44  33  66 CALM      29.80S
PHILLIPS       PTCLDY    38  32  78 S5        29.78R WCI  35
TOMAHAWK       CLEAR     32  30  93 CALM      29.82S FOG
MEDFORD        FOG       31  31  99 SE6       29.80F VSB 1/4 WCI  25
MERRILL        CLEAR     32  32 100 CALM        N/A  FOG
$$

WIZ029-030-035-036-043>047-200000-
CENTRAL WISCONSIN

CITY           SKY/WX    TMP DP  RH WIND       PRES   REMARKS
WAUSAU         CLEAR     34  31  88 SE7       29.82S WCI  28
MOSINEE        CLOUDY    32  32 100 SE5       29.84S FOG     WCI  27
MARSHFIELD     FOG       31  30  96 E8        29.81S VSB 1/4 WCI  23
STEVENS POINT  CLOUDY    32  32 100 NE3       29.84F FOG
WAUPACA        CLOUDY    34  32  91 CALM      29.88S FOG
WAUTOMA        CLOUDY    33  32  96 CALM      29.87F
WISC RAPIDS    PTCLDY    36  32  85 SE8       29.85S WCI  30
CAMP DOUGLAS   CLOUDY    37  33  84 SE6       29.84R WCI  32
$$

WIZ011>013-019>022-031-037>040-048>050-200000-
NORTHEAST WISCONSIN

CITY           SKY/WX    TMP DP  RH WIND       PRES   REMARKS
ANTIGO         FOG       31  31 100 S7        29.84R VSB<1/4 WCI  24
SHAWANO        CLOUDY    34  32  92 CALM      29.89S FOG
OCONTO         CLOUDY    33  31  96 CALM      29.88F
STURGEON BAY   CLOUDY    34  30  86 SE9       29.90R FOG     WCI  26
GREEN BAY      FOG       34  34 100 W3        29.88S VSB 1/2
MANITOWOC      FOG       33  32  96 S3        29.90S VSB 1/2
APPLETON       FOG       32  32 100 SW5       29.86S VSB 3/4 WCI  27
CLINTONVILLE   CLOUDY    32  32 100 CALM      29.87F FOG
OSHKOSH        FOG       33  33 100 CALM      29.88R VSB 1/2
$$

WIZ032>034-041-042-053>061-200000-
SOUTHWEST WISCONSIN

CITY           SKY/WX    TMP DP  RH WIND       PRES   REMARKS
LA CROSSE      CLOUDY    38  33  82 S5        29.81S WCI  34
SPARTA         CLOUDY    37  33  84 E5        29.84R WCI  34
VIROQUA        CLOUDY    35  34  96 E7        29.80F WCI  29
BOSCOBEL       LGT RAIN  38  34  85 CALM      29.83S FOG
PRAIRIE DU CHI CLOUDY    36  34  94 E5        29.81F FOG     WCI  32
PLATTEVILLE    CLOUDY    35  35 100 E5        29.82S VSB 1   WCI  31
$$

WIZ056-057-062-063-064-067-068-200000-
SOUTH CENTRAL WISCONSIN

CITY           SKY/WX    TMP DP  RH WIND       PRES   REMARKS
REEDSBURG      NOT AVBL
BARABOO/DELLS  CLOUDY    36  33  90 CALM      29.84F FOG
LONE ROCK      CLOUDY    37  33  85 E7        29.84F FOG     WCI  32
MINERAL POINT  RAIN      36  36 100 E3        29.82S
MADISON        CLOUDY    35  34  96 E5        29.85F FOG     WCI  31
MIDDLETON      CLOUDY    37  37 100 E3        29.85S
WATERTOWN      CLOUDY    36  36  99 CALM      29.85F
MONROE         LGT RAIN  34  34 100 E7        29.82F VSB 1/4 WCI  28
JANESVILLE     CLOUDY    37  37 100 CALM      29.85S FOG
$$

WIZ051-052-058>065-066-070>072-200000-
SOUTHEAST WISCONSIN

CITY           SKY/WX    TMP DP  RH WIND       PRES   REMARKS
MILWAUKEE      FOG       36  33  89 SE6       29.88F VSB 1/4 WCI  31
WAUKESHA       PTCLDY    34  34 100 E5        29.87F FOG     WCI  30
MILWAUKEE/TIMM MOCLDY    36  32  87 E5        29.88F FOG     WCI  32
RACINE         FOG       36  35  96 SE5       29.89F VSB 1/4 WCI  32
KENOSHA        FOG       36  34  92 E7        29.87F VSB 1/2 WCI  30
FOND DU LAC    CLOUDY    35  32  88 CALM      29.86F FOG
SHEBOYGAN      FOG       32  32 100 CALM      29.88F VSB 1/4
WEST BEND      CLOUDY    32  32 100 SE3       29.86F FOG
JUNEAU         CLOUDY    33  33  99 CALM      29.86F FOG
$$

LSZ147-162-200000-
LAKE SUPERIOR

STATION/POSITION TIME  TEMP    WIND        PRES    WAVE
                       AIR SEA DIR/SP/G            HT/PER
                 (UTC) (F)     (DEG/KT/KT) (MB)    (FT/S)
DEVILS ISLAND    2300   35      80/  8/  9 1008.6R
PORT WING        2240   35      30/  8/ 10 1007.8R
SAXON HARBOR     2240   40     190/  2/  3 1007.5S
$$

LMZ867-665-643>646-200000-
LAKE MICHIGAN

STATION/POSITION TIME  TEMP    WIND        PRES    WAVE
                       AIR SEA DIR/SP/G            HT/PER
                 (UTC) (F)     (DEG/KT/KT) (MB)    (FT/S)
NORTHPORT PIER   2230   34     190/  1/  3 1012.2S
SISTER BAY       2235   34     200/  8/ 10   N/A
ALGOMA LAKESHORE 2054          230/ 14/ 17   N/A
KEWAUNEE LAKESHO 2248   33     190/  9/ 11 1012.2R
SHEBOYGAN LAKESH 2300   33     190/  8/  8 1012.2F
PORT WASHINGTON  2240   34     190/  5/ 10 1012.9F
MILWAUKEE LAKESH 2300   34     150/  7/  7   N/A
KENOSHA   LAKESH 2300   35     100/  3/  4 1011.9
$$

TC  - TEMPERATURE IN CELSIUS
VSB - VISIBILITY IN STATUTE MILES
WCI - WIND CHILL INDEX
HX  - HEAT INDEX





USA.gov is the U.S. government's official web portal to all federal, state and local government web resources and services.